Weather History for KMDQ - August, 2013

Change the Weather History Date:

Thursday, August 15, 2013

  Actual Average (KHSV) Record (KHSV)
Temperature  
Mean Temperature 67 °F 80 °F  
Max Temperature 77 °F 91 °F 105 °F (1954)
Min Temperature 57 °F 70 °F 52 °F (2004)
Degree Days  
Heating Degree Days 0 0  
Month to date heating degree days 0  
Since 1 June heating degree days 1  
Since 1 July heating degree days 0  
Cooling Degree Days 2 15  
Month to date cooling degree days 239  
Year to date cooling degree days 1364  
Since 1 June cooling degree days 1101  
Growing Degree Days 17 (Base 50)    
Moisture  
Dew Point 58 °F    
Average Humidity 72    
Maximum Humidity 88    
Minimum Humidity 54    
Precipitation  
Precipitation 0.00 in 0.12 in 2.40 in (1901)
Month to date precipitation 1.81  
Year to date precipitation 34.52  
Snow  
Snow 0.00 in - - ()
Month to date snowfall  
Since 1 June snowfall  
Since 1 July snowfall  
Snow Depth -    
Sea Level Pressure  
Sea Level Pressure 30.05 in    
Wind  
Wind Speed 3 mph (ESE)    
Max Wind Speed 9 mph    
Max Gust Speed -    
Visibility 10 miles    
Events      
T = Trace of Precipitation, MM = Missing Value Source: NWS Daily Summary

Daily Weather History Graph

Daily Weather History Graph

Search for Another Location

Airport or City:

Trip Planner

Search our weather history database for the weather conditions in past years. The results will help you decide how hot, cold, wet, or windy it might be!

Date:

Astronomy

Aug. 15, 2013 Rise Set
Actual Time 6:06 AM CDT 7:34 PM CDT
Civil Twilight 5:39 AM CDT 8:00 PM CDT
Nautical Twilight 5:07 AM CDT 8:32 PM CDT
Astronomical Twilight 4:34 AM CDT 9:06 PM CDT
Moon 2:46 PM CDT (8/15) 12:19 AM CDT (8/15)
Length of Visible Light 14h 20m
Length of Day
13h 27m
Waxing Gibbous, 64% of the Moon is Illuminated
Aug 15
Waxing Gibbous
Aug 20
Full
Aug 28
Last Quarter
Sep 5
New
Sep 12
First Quarter

Hourly Weather History & Observations

Time (CDT) Temp. Dew Point Humidity Pressure Visibility Wind Dir Wind Speed Gust Speed Precip Events Conditions
12:15 AM 60.8 °F 55.4 °F 82% 30.06 in 10.0 mi Calm Calm - N/A   Clear
12:35 AM 60.8 °F 55.4 °F 82% 30.06 in 10.0 mi North 4.6 mph - N/A   Clear
12:55 AM 60.8 °F 53.6 °F 77% 30.05 in 10.0 mi North 4.6 mph - N/A   Clear
1:15 AM 60.8 °F 53.6 °F 77% 30.05 in 10.0 mi North 3.5 mph - N/A   Clear
1:35 AM 60.8 °F 53.6 °F 77% 30.04 in 10.0 mi North 4.6 mph - N/A   Clear
1:55 AM 59.0 °F 53.6 °F 82% 30.05 in 10.0 mi North 4.6 mph - N/A   Clear
2:15 AM 60.8 °F 53.6 °F 77% 30.04 in 10.0 mi North 4.6 mph - N/A   Clear
2:35 AM 59.0 °F 53.6 °F 82% 30.04 in 10.0 mi North 3.5 mph - N/A   Clear
2:55 AM 59.0 °F 53.6 °F 82% 30.03 in 10.0 mi North 3.5 mph - N/A   Clear
3:15 AM 59.0 °F 53.6 °F 82% 30.03 in 10.0 mi North 3.5 mph - N/A   Clear
3:35 AM 59.0 °F 53.6 °F 82% 30.03 in 10.0 mi North 3.5 mph - N/A   Clear
3:55 AM 59.0 °F 53.6 °F 82% 30.03 in 10.0 mi Calm Calm - N/A   Clear
4:15 AM 59.0 °F 53.6 °F 82% 30.03 in 10.0 mi Calm Calm - N/A   Clear
4:35 AM 59.0 °F 53.6 °F 82% 30.03 in 10.0 mi Calm Calm - N/A   Clear
4:55 AM 57.2 °F 53.6 °F 88% 30.03 in 10.0 mi Calm Calm - N/A   Clear
5:15 AM 57.2 °F 53.6 °F 88% 30.04 in 10.0 mi Calm Calm - N/A   Clear
5:35 AM 57.2 °F 53.6 °F 88% 30.04 in 10.0 mi Calm Calm - N/A   Clear
5:55 AM 57.2 °F 53.6 °F 88% 30.03 in 10.0 mi Calm Calm - N/A   Clear
6:15 AM 57.2 °F 53.6 °F 88% 30.04 in 10.0 mi Calm Calm - N/A   Clear
6:35 AM 57.2 °F 53.6 °F 88% 30.04 in 10.0 mi Calm Calm - N/A   Clear
6:55 AM 57.2 °F 53.6 °F 88% 30.05 in 10.0 mi Calm Calm - N/A   Clear
7:15 AM 59.0 °F 53.6 °F 82% 30.05 in 10.0 mi Calm Calm - N/A   Scattered Clouds
7:35 AM 60.8 °F 55.4 °F 82% 30.06 in 10.0 mi Calm Calm - N/A   Scattered Clouds
7:55 AM 60.8 °F 55.4 °F 82% 30.06 in 10.0 mi Calm Calm - N/A   Clear
8:15 AM 62.6 °F 57.2 °F 82% 30.06 in 10.0 mi Calm Calm - N/A   Mostly Cloudy
8:35 AM 62.6 °F 57.2 °F 82% 30.06 in 10.0 mi Calm Calm - N/A   Overcast
8:55 AM 64.4 °F 59.0 °F 83% 30.07 in 10.0 mi Calm Calm - N/A   Mostly Cloudy
9:15 AM 68.0 °F 59.0 °F 73% 30.07 in 10.0 mi Calm Calm - N/A   Mostly Cloudy
9:35 AM 68.0 °F 59.0 °F 73% 30.07 in 10.0 mi Calm Calm - N/A   Mostly Cloudy
9:55 AM 69.8 °F 59.0 °F 68% 30.07 in 10.0 mi SE 4.6 mph - N/A   Mostly Cloudy
10:15 AM 71.6 °F 59.0 °F 64% 30.07 in 10.0 mi SE 4.6 mph - N/A   Scattered Clouds
10:35 AM 71.6 °F 60.8 °F 69% 30.07 in 10.0 mi ESE 5.8 mph - N/A   Mostly Cloudy
10:55 AM 71.6 °F 60.8 °F 69% 30.07 in 10.0 mi Calm Calm - N/A   Overcast
11:15 AM 71.6 °F 60.8 °F 69% 30.07 in 10.0 mi SE 3.5 mph - N/A   Overcast
11:35 AM 73.4 °F 60.8 °F 65% 30.07 in 10.0 mi SE 4.6 mph - N/A   Overcast
11:55 AM 73.4 °F 60.8 °F 65% 30.06 in 10.0 mi SE 5.8 mph - N/A   Overcast
12:15 PM 73.4 °F 60.8 °F 65% 30.06 in 10.0 mi ESE 5.8 mph - N/A   Overcast
12:35 PM 73.4 °F 60.8 °F 65% 30.06 in 10.0 mi SSE 6.9 mph - N/A   Overcast
12:55 PM 73.4 °F 60.8 °F 65% 30.06 in 10.0 mi SSE 6.9 mph - N/A   Overcast
1:15 PM 73.4 °F 60.8 °F 65% 30.06 in 10.0 mi SE 4.6 mph - N/A   Overcast
1:35 PM 73.4 °F 60.8 °F 65% 30.05 in 10.0 mi SE 4.6 mph - N/A   Overcast
1:55 PM 77.0 °F 59.0 °F 54% 30.04 in 10.0 mi SE 6.9 mph - N/A   Scattered Clouds
2:15 PM 77.0 °F 59.0 °F 54% 30.04 in 10.0 mi SE 3.5 mph - N/A   Mostly Cloudy
2:35 PM 75.2 °F 60.8 °F 61% 30.04 in 10.0 mi ESE 3.5 mph - N/A   Overcast
2:55 PM 75.2 °F 60.8 °F 61% 30.04 in 10.0 mi SE 5.8 mph - N/A   Overcast
3:15 PM 77.0 °F 60.8 °F 57% 30.03 in 10.0 mi ESE 8.1 mph - N/A   Mostly Cloudy
3:35 PM 77.0 °F 59.0 °F 54% 30.03 in 10.0 mi ESE 8.1 mph - N/A   Scattered Clouds
3:55 PM 77.0 °F 59.0 °F 54% 30.03 in 10.0 mi ESE 4.6 mph - N/A   Mostly Cloudy
4:15 PM 77.0 °F 59.0 °F 54% 30.02 in 10.0 mi ESE 6.9 mph - N/A   Mostly Cloudy
4:35 PM 77.0 °F 59.0 °F 54% 30.02 in 10.0 mi SE 8.1 mph - N/A   Mostly Cloudy
4:55 PM 77.0 °F 59.0 °F 54% 30.02 in 10.0 mi SE 6.9 mph - N/A   Scattered Clouds
5:15 PM 77.0 °F 59.0 °F 54% 30.02 in 10.0 mi SE 9.2 mph - N/A   Scattered Clouds
5:35 PM 77.0 °F 59.0 °F 54% 30.03 in 10.0 mi SE 6.9 mph - N/A   Scattered Clouds
5:55 PM 77.0 °F 59.0 °F 54% 30.02 in 10.0 mi ESE 8.1 mph - N/A   Clear
6:15 PM 75.2 °F 59.0 °F 57% 30.02 in 10.0 mi SE 6.9 mph - N/A   Scattered Clouds
6:35 PM 73.4 °F 59.0 °F 61% 30.03 in 10.0 mi SE 4.6 mph - N/A   Clear
6:55 PM 73.4 °F 59.0 °F 61% 30.03 in 10.0 mi SE 5.8 mph - N/A   Clear
7:15 PM 71.6 °F 59.0 °F 64% 30.04 in 10.0 mi SE 3.5 mph - N/A   Clear
7:35 PM 71.6 °F 59.0 °F 64% 30.04 in 10.0 mi SE 5.8 mph - N/A   Clear
7:55 PM 71.6 °F 59.0 °F 64% 30.04 in 10.0 mi Calm Calm - N/A   Clear
8:15 PM 69.8 °F 59.0 °F 68% 30.04 in 10.0 mi Calm Calm - N/A   Clear
8:35 PM 69.8 °F 59.0 °F 68% 30.05 in 10.0 mi Calm Calm - N/A   Clear
8:55 PM 69.8 °F 59.0 °F 68% 30.05 in 10.0 mi Calm Calm - N/A   Clear
9:15 PM 68.0 °F 59.0 °F 73% 30.06 in 10.0 mi SE 3.5 mph - N/A   Clear
9:35 PM 66.2 °F 59.0 °F 78% 30.06 in 10.0 mi Calm Calm - N/A   Clear
9:55 PM 66.2 °F 59.0 °F 78% 30.06 in 10.0 mi Calm Calm - N/A   Clear
10:15 PM 64.4 °F 59.0 °F 83% 30.06 in 10.0 mi Calm Calm - N/A   Clear
10:35 PM 64.4 °F 59.0 °F 83% 30.06 in 10.0 mi Calm Calm - N/A   Clear
10:55 PM 64.4 °F 60.8 °F 88% 30.06 in 10.0 mi Calm Calm - N/A   Clear
11:15 PM 62.6 °F 59.0 °F 88% 30.06 in 10.0 mi Calm Calm - N/A   Clear
11:35 PM 62.6 °F 59.0 °F 88% 30.06 in 10.0 mi Calm Calm - N/A   Clear
11:55 PM 62.6 °F 59.0 °F 88% 30.07 in 7.0 mi Calm Calm - N/A   Clear